DW5071 Weather Reports


Display with metric or nautical units.
time (UTC)temp
F
wind
direction
speed
MPH
gust
MPH
rain 1hr
in
rain 24hr
in
rain mn
in
humidity
%
barometer
mb
20171216221517 66 264 1.0 4.0 0.00 0.00 0.00 17 1005.9
20171216221017 66 259 1.0 4.0 0.00 0.00 0.00 17 1005.9
20171216220517 66 260 1.0 5.0 0.00 0.00 0.00 17 1006.0
20171216220017 66 264 2.0 5.0 0.00 0.00 0.00 17 1006.2
20171216215517 66 264 2.0 5.0 0.00 0.00 0.00 17 1006.2
20171216215018 66 266 0.0 5.0 0.00 0.00 0.00 18 1006.3
20171216214515 66 255 1.0 5.0 0.00 0.00 0.00 17 1006.3
20171216214017 66 256 1.0 3.0 0.00 0.00 0.00 17 1006.3
20171216213517 66 261 0.0 6.0 0.00 0.00 0.00 17 1006.3
20171216213017 66 259 2.0 6.0 0.00 0.00 0.00 17 1006.3
20171216212515 65 258 0.0 5.0 0.00 0.00 0.00 18 1006.4
20171216212017 65 263 2.0 5.0 0.00 0.00 0.00 17 1006.4
20171216211515 65 257 0.0 4.0 0.00 0.00 0.00 18 1006.4
20171216211018 65 263 0.0 4.0 0.00 0.00 0.00 17 1006.5
20171216210515 65 260 1.0 3.0 0.00 0.00 0.00 18 1006.5
20171216210017 65 262 0.0 5.0 0.00 0.00 0.00 17 1006.5
20171216205518 65 260 1.0 5.0 0.00 0.00 0.00 17 1006.4
20171216205017 65 260 1.0 5.0 0.00 0.00 0.00 18 1006.5
20171216204520 65 264 2.0 5.0 0.00 0.00 0.00 18 1006.6
20171216204015 65 253 1.0 6.0 0.00 0.00 0.00 18 1006.7
20171216203518 65 267 2.0 6.0 0.00 0.00 0.00 18 1006.7
20171216203017 65 264 2.0 5.0 0.00 0.00 0.00 18 1006.8
20171216202517 65 262 1.0 4.0 0.00 0.00 0.00 19 1006.7
20171216202016 64 271 1.0 5.0 0.00 0.00 0.00 19 1006.9
20171216201517 64 262 2.0 5.0 0.00 0.00 0.00 18 1006.8
20171216201018 64 261 2.0 5.0 0.00 0.00 0.00 18 1007.0
20171216200518 64 255 1.0 6.0 0.00 0.00 0.00 19 1007.1
20171216200016 63 264 3.0 6.0 0.00 0.00 0.00 18 1007.1
20171216195517 63 260 1.0 6.0 0.00 0.00 0.00 19 1007.1
20171216195017 63 265 2.0 6.0 0.00 0.00 0.00 21 1007.3
20171216194517 62 255 0.0 4.0 0.00 0.00 0.00 24 1007.4
20171216194016 62 271 1.0 4.0 0.00 0.00 0.00 26 1007.6
20171216193517 62 265 0.0 4.0 0.00 0.00 0.00 25 1007.7
20171216193019 61 264 0.0 3.0 0.00 0.00 0.00 26 1007.7
20171216192517 61 259 1.0 3.0 0.00 0.00 0.00 26 1007.8
20171216192017 60 265 0.0 2.0 0.00 0.00 0.00 28 1007.9
20171216191517 60 265 0.0 2.0 0.00 0.00 0.00 28 1008.0
20171216191017 60 265 0.0 2.0 0.00 0.00 0.00 29 1008.0
20171216190517 60 265 0.0 3.0 0.00 0.00 0.00 29 1008.0
20171216190017 60 266 0.0 3.0 0.00 0.00 0.00 27 1008.3
20171216185517 59 272 0.0 4.0 0.00 0.00 0.00 27 1008.4
20171216185016 59 269 1.0 4.0 0.00 0.00 0.00 27 1008.5
20171216184517 59 262 0.0 3.0 0.00 0.00 0.00 28 1008.6
20171216184016 59 263 0.0 2.0 0.00 0.00 0.00 29 1008.7
20171216183517 59 264 0.0 4.0 0.00 0.00 0.00 32 1008.8
20171216183020 58 264 0.0 4.0 0.00 0.00 0.00 29 1008.9
20171216182519 58 0.0 0.0 0.00 0.00 0.00 32 1009.0
20171216182017 58 0.0 0.0 0.00 0.00 0.00 33 1009.1
20171216181517 57 0.0 0.0 0.00 0.00 0.00 33 1009.1
20171216181017 57 0.0 0.0 0.00 0.00 0.00 34 1009.2
20171216180518 56 0.0 0.0 0.00 0.00 0.00 34 1009.0
20171216180017 56 0.0 0.0 0.00 0.00 0.00 35 1009.1
20171216175517 55 0.0 0.0 0.00 0.00 0.00 35 1009.1
20171216175017 55 0.0 0.0 0.00 0.00 0.00 35 1009.2
20171216174517 54 0.0 0.0 0.00 0.00 0.00 34 1009.2
20171216174017 54 0.0 0.0 0.00 0.00 0.00 36 1009.1
20171216173517 53 0.0 1.0 0.00 0.00 0.00 35 1009.1
20171216173017 53 265 0.0 1.0 0.00 0.00 0.00 36 1009.1
20171216172516 52 0.0 0.0 0.00 0.00 0.00 40 1009.0
20171216172017 51 0.0 0.0 0.00 0.00 0.00 41 1009.1
20171216171520 51 0.0 0.0 0.00 0.00 0.00 41 1009.1
20171216171017 51 0.0 0.0 0.00 0.00 0.00 40 1009.1
20171216170516 51 0.0 0.0 0.00 0.00 0.00 39 1009.1
20171216170017 50 0.0 0.0 0.00 0.00 0.00 40 1009.1
20171216165517 50 0.0 0.0 0.00 0.00 0.00 39 1009.0
20171216165017 50 0.0 0.0 0.00 0.00 0.00 39 1009.1
20171216164517 50 0.0 1.0 0.00 0.00 0.00 39 1009.1
20171216164017 50 266 0.0 1.0 0.00 0.00 0.00 38 1009.1
20171216163517 50 266 0.0 1.0 0.00 0.00 0.00 39 1009.2
20171216163016 50 266 0.0 1.0 0.00 0.00 0.00 40 1009.2
20171216162516 50 266 0.0 1.0 0.00 0.00 0.00 39 1009.3
20171216162017 50 0.0 0.0 0.00 0.00 0.00 39 1009.1
20171216161518 50 0.0 0.0 0.00 0.00 0.00 38 1009.1
20171216161017 50 0.0 0.0 0.00 0.00 0.00 38 1009.0
20171216160516 50 0.0 1.0 0.00 0.00 0.00 39 1008.9
20171216160017 50 266 0.0 1.0 0.00 0.00 0.00 38 1008.7
20171216155516 50 0.0 0.0 0.00 0.00 0.00 38 1008.6
20171216155017 50 0.0 1.0 0.00 0.00 0.00 40 1008.6
20171216154516 50 266 0.0 1.0 0.00 0.00 0.00 38 1008.7
20171216154017 50 266 0.0 3.0 0.00 0.00 0.00 37 1008.8
20171216153517 49 269 0.0 3.0 0.00 0.00 0.00 38 1008.6
20171216153017 49 264 0.0 2.0 0.00 0.00 0.00 37 1008.6
20171216152517 49 269 0.0 3.0 0.00 0.00 0.00 37 1008.5
20171216152016 48 262 1.0 3.0 0.00 0.00 0.00 38 1008.3
20171216151516 48 255 0.0 2.0 0.00 0.00 0.00 39 1008.3
20171216151017 48 255 0.0 3.0 0.00 0.00 0.00 39 1008.5
20171216150516 47 260 0.0 4.0 0.00 0.00 0.00 39 1008.5
20171216150017 47 265 1.0 4.0 0.00 0.00 0.00 39 1008.4
20171216145517 45 273 1.0 3.0 0.00 0.00 0.00 41 1008.4
20171216145017 43 274 0.0 2.0 0.00 0.00 0.00 46 1008.5
20171216144517 42 0.0 0.0 0.00 0.00 0.00 49 1008.7
20171216144017 42 0.0 0.0 0.00 0.00 0.00 49 1008.8
20171216143517 41 0.0 0.0 0.00 0.00 0.00 49 1008.8
20171216143017 41 0.0 0.0 0.00 0.00 0.00 49 1008.8
20171216142517 42 0.0 0.0 0.00 0.00 0.00 49 1008.8
20171216142018 42 0.0 0.0 0.00 0.00 0.00 48 1008.8
20171216141517 41 0.0 0.0 0.00 0.00 0.00 50 1008.9
20171216141018 40 0.0 0.0 0.00 0.00 0.00 51 1009.0
20171216140518 40 0.0 0.0 0.00 0.00 0.00 52 1009.2
20171216140017 40 0.0 0.0 0.00 0.00 0.00 51 1009.2
20171216135518 40 0.0 0.0 0.00 0.00 0.00 52 1009.2
20171216135017 40 0.0 0.0 0.00 0.00 0.00 51 1009.0
20171216134516 40 0.0 0.0 0.00 0.00 0.00 52 1009.1
20171216134017 40 0.0 0.0 0.00 0.00 0.00 51 1009.1
20171216133518 40 0.0 0.0 0.00 0.00 0.00 51 1009.1
20171216133016 40 0.0 0.0 0.00 0.00 0.00 52 1009.1
20171216132516 40 0.0 0.0 0.00 0.00 0.00 52 1009.2
20171216132017 40 0.0 0.0 0.00 0.00 0.00 52 1009.3
20171216131515 39 0.0 0.0 0.00 0.00 0.00 52 1009.4
20171216131016 39 0.0 0.0 0.00 0.00 0.00 51 1009.4
20171216130517 39 0.0 0.0 0.00 0.00 0.00 51 1009.5
20171216130016 39 0.0 0.0 0.00 0.00 0.00 50 1009.6
20171216125516 39 0.0 0.0 0.00 0.00 0.00 50 1009.6
20171216125017 39 0.0 0.0 0.00 0.00 0.00 50 1009.5
20171216124517 39 0.0 0.0 0.00 0.00 0.00 50 1009.7
20171216124016 39 0.0 0.0 0.00 0.00 0.00 51 1009.7
20171216123516 39 0.0 0.0 0.00 0.00 0.00 51 1009.8
20171216123017 39 0.0 0.0 0.00 0.00 0.00 51 1009.9
20171216122516 39 0.0 0.0 0.00 0.00 0.00 52 1010.1
20171216122017 39 0.0 0.0 0.00 0.00 0.00 52 1010.1
20171216121516 39 0.0 0.0 0.00 0.00 0.00 51 1010.1
20171216121017 39 0.0 0.0 0.00 0.00 0.00 51 1010.2
20171216120519 39 0.0 0.0 0.00 0.00 0.00 51 1010.2
20171216120018 39 0.0 0.0 0.00 0.00 0.00 52 1010.4
20171216115517 39 0.0 0.0 0.00 0.00 0.00 52 1010.5
20171216115016 39 0.0 0.0 0.00 0.00 0.00 50 1010.7
20171216114516 40 0.0 0.0 0.00 0.00 0.00 50 1010.7
20171216114016 40 0.0 0.0 0.00 0.00 0.00 50 1010.9
20171216113517 40 0.0 0.0 0.00 0.00 0.00 50 1011.0
20171216113017 40 0.0 0.0 0.00 0.00 0.00 50 1011.1
20171216112516 40 0.0 0.0 0.00 0.00 0.00 49 1011.2
20171216112016 40 0.0 0.0 0.00 0.00 0.00 48 1011.2
20171216111517 41 0.0 0.0 0.00 0.00 0.00 48 1011.3
20171216111018 41 0.0 0.0 0.00 0.00 0.00 47 1011.3
20171216110518 41 0.0 0.0 0.00 0.00 0.00 47 1011.5
20171216110017 41 0.0 0.0 0.00 0.00 0.00 47 1011.8
20171216105517 41 0.0 0.0 0.00 0.00 0.00 47 1011.8
20171216105016 41 0.0 0.0 0.00 0.00 0.00 48 1011.9
20171216104516 40 0.0 0.0 0.00 0.00 0.00 48 1011.9
20171216104017 40 0.0 0.0 0.00 0.00 0.00 48 1012.0
20171216103517 40 0.0 0.0 0.00 0.00 0.00 47 1011.9
20171216103016 41 0.0 0.0 0.00 0.00 0.00 47 1012.0
20171216102516 41 0.0 0.0 0.00 0.00 0.00 47 1012.1
20171216102016 41 0.0 0.0 0.00 0.00 0.00 47 1012.1
20171216101516 41 0.0 0.0 0.00 0.00 0.00 47 1012.3
20171216101017 41 0.0 0.0 0.00 0.00 0.00 47 1012.4
20171216100517 41 0.0 0.0 0.00 0.00 0.00 45 1012.4
20171216100016 41 0.0 0.0 0.00 0.00 0.00 46 1012.4
20171216095516 41 0.0 0.0 0.00 0.00 0.00 46 1012.6
20171216095018 41 0.0 0.0 0.00 0.00 0.00 45 1012.7
20171216094517 41 0.0 0.0 0.00 0.00 0.00 45 1012.8
20171216094016 42 0.0 0.0 0.00 0.00 0.00 45 1013.0
20171216093516 42 0.0 0.0 0.00 0.00 0.00 43 1013.2
20171216093016 42 0.0 0.0 0.00 0.00 0.00 43 1013.3
20171216092517 42 0.0 0.0 0.00 0.00 0.00 43 1013.4
20171216092017 42 0.0 0.0 0.00 0.00 0.00 43 1013.5
20171216091516 42 0.0 0.0 0.00 0.00 0.00 42 1013.5
20171216091017 42 0.0 0.0 0.00 0.00 0.00 42 1013.5
20171216090516 43 0.0 0.0 0.00 0.00 0.00 40 1013.4
20171216090017 43 0.0 0.0 0.00 0.00 0.00 40 1013.5
20171216085516 43 0.0 0.0 0.00 0.00 0.00 40 1013.5
20171216085017 43 0.0 0.0 0.00 0.00 0.00 40 1013.7
20171216084516 44 0.0 0.0 0.00 0.00 0.00 41 1013.6
20171216084017 43 0.0 1.0 0.00 0.00 0.00 41 1013.7
20171216083516 43 274 0.0 1.0 0.00 0.00 0.00 42 1013.7
20171216083017 44 0.0 0.0 0.00 0.00 0.00 42 1013.7
20171216082516 44 0.0 0.0 0.00 0.00 0.00 42 1013.8
20171216082016 44 0.0 0.0 0.00 0.00 0.00 42 1013.8
20171216081516 44 0.0 0.0 0.00 0.00 0.00 40 1013.9
20171216081019 44 0.0 0.0 0.00 0.00 0.00 40 1014.0
20171216080516 45 0.0 0.0 0.00 0.00 0.00 40 1014.1
20171216080019 45 0.0 0.0 0.00 0.00 0.00 39 1014.1
20171216075516 46 0.0 0.0 0.00 0.00 0.00 38 1014.1
20171216075016 46 0.0 0.0 0.00 0.00 0.00 38 1014.1
20171216074517 47 0.0 0.0 0.00 0.00 0.00 38 1014.3
20171216074016 47 0.0 0.0 0.00 0.00 0.00 37 1014.5
20171216073516 48 0.0 0.0 0.00 0.00 0.00 36 1014.4
20171216073016 48 0.0 0.0 0.00 0.00 0.00 34 1014.4
20171216072517 49 0.0 0.0 0.00 0.00 0.00 33 1014.4
20171216072018 49 0.0 1.0 0.00 0.00 0.00 32 1014.5
20171216071517 50 274 0.0 1.0 0.00 0.00 0.00 32 1014.6
20171216071017 50 274 0.0 1.0 0.00 0.00 0.00 31 1014.6
20171216070516 50 274 0.0 1.0 0.00 0.00 0.00 31 1014.6
20171216070016 50 274 0.0 3.0 0.00 0.00 0.00 31 1014.6
20171216065515 50 274 0.0 4.0 0.00 0.00 0.00 31 1014.5
20171216065015 50 267 1.0 4.0 0.00 0.00 0.00 32 1014.6
20171216064515 50 268 1.0 3.0 0.00 0.00 0.00 32 1014.6
20171216064015 50 267 0.0 3.0 0.00 0.00 0.00 33 1014.7
20171216063515 50 271 0.0 3.0 0.00 0.00 0.00 32 1014.7
20171216063020 50 271 0.0 2.0 0.00 0.00 0.00 32 1014.7
20171216062515 50 262 1.0 2.0 0.00 0.00 0.00 33 1014.8
20171216062016 50 262 0.0 2.0 0.00 0.00 0.00 34 1014.9
20171216061515 50 262 0.0 2.0 0.00 0.00 0.00 34 1015.0
20171216061016 50 262 0.0 2.0 0.00 0.00 0.00 34 1015.2
20171216060516 50 262 0.0 2.0 0.00 0.00 0.00 35 1015.3
20171216060016 50 242 1.0 2.0 0.00 0.00 0.00 36 1015.2
20171216055516 49 221 0.0 2.0 0.00 0.00 0.00 37 1015.2
20171216055015 49 222 0.0 2.0 0.00 0.00 0.00 38 1015.2
20171216054515 49 222 0.0 2.0 0.00 0.00 0.00 39 1015.2
20171216054015 48 222 0.0 1.0 0.00 0.00 0.00 39 1015.2
20171216053515 48 0.0 0.0 0.00 0.00 0.00 40 1015.2
20171216053015 48 0.0 0.0 0.00 0.00 0.00 40 1015.1
20171216052515 48 0.0 0.0 0.00 0.00 0.00 40 1015.2
20171216052015 49 0.0 0.0 0.00 0.00 0.00 40 1015.4
20171216051515 49 0.0 0.0 0.00 0.00 0.00 38 1015.4
20171216051015 49 0.0 1.0 0.00 0.00 0.00 38 1015.4
20171216050515 50 221 0.0 1.0 0.00 0.00 0.00 39 1015.2
20171216050017 49 221 0.0 1.0 0.00 0.00 0.00 40 1015.1
20171216045516 48 222 0.0 1.0 0.00 0.00 0.00 42 1015.1
20171216045015 48 0.0 0.0 0.00 0.00 0.00 42 1015.0
20171216044516 48 0.0 0.0 0.00 0.00 0.00 40 1015.0
20171216044015 48 0.0 0.0 0.00 0.00 0.00 41 1015.0
20171216043515 48 0.0 0.0 0.00 0.00 0.00 41 1015.0
20171216043016 48 0.0 0.0 0.00 0.00 0.00 41 1015.0
20171216042515 49 0.0 0.0 0.00 0.00 0.00 40 1014.9
20171216042017 49 0.0 0.0 0.00 0.00 0.00 40 1014.9
20171216041515 49 0.0 0.0 0.00 0.00 0.00 40 1015.0
20171216041015 49 0.0 0.0 0.00 0.00 0.00 40 1015.0
20171216040515 49 0.0 0.0 0.00 0.00 0.00 40 1014.9
20171216040016 48 0.0 0.0 0.00 0.00 0.00 40 1014.8
20171216035515 49 0.0 0.0 0.00 0.00 0.00 39 1014.8
20171216035015 49 0.0 0.0 0.00 0.00 0.00 39 1014.9
20171216034515 49 0.0 0.0 0.00 0.00 0.00 39 1014.8
20171216034015 50 0.0 0.0 0.00 0.00 0.00 38 1014.8
20171216033515 50 0.0 0.0 0.00 0.00 0.00 39 1014.8
20171216033015 50 0.0 0.0 0.00 0.00 0.00 39 1014.9
20171216032516 50 0.0 0.0 0.00 0.00 0.00 38 1014.8
20171216032015 50 0.0 0.0 0.00 0.00 0.00 37 1015.0
20171216031515 50 0.0 0.0 0.00 0.00 0.00 37 1015.0
20171216031015 51 0.0 0.0 0.00 0.00 0.00 38 1014.9
20171216030517 51 0.0 0.0 0.00 0.00 0.00 38 1014.9
20171216030015 51 0.0 0.0 0.00 0.00 0.00 43 1014.9
20171216025516 52 0.0 0.0 0.00 0.00 0.00 41 1014.9
20171216025015 52 0.0 0.0 0.00 0.00 0.00 39 1015.0
20171216024515 52 0.0 0.0 0.00 0.00 0.00 36 1015.0
20171216024015 52 0.0 0.0 0.00 0.00 0.00 37 1015.0
20171216023516 52 0.0 0.0 0.00 0.00 0.00 36 1015.1
20171216023015 52 0.0 0.0 0.00 0.00 0.00 36 1015.1
20171216022515 52 0.0 0.0 0.00 0.00 0.00 36 1015.1
20171216022015 53 0.0 0.0 0.00 0.00 0.00 35 1015.2
20171216021515 53 0.0 0.0 0.00 0.00 0.00 33 1015.2
20171216021015 53 0.0 0.0 0.00 0.00 0.00 33 1015.3
20171216020515 54 0.0 0.0 0.00 0.00 0.00 34 1015.3
20171216020015 54 0.0 0.0 0.00 0.00 0.00 34 1015.3
20171216015517 54 0.0 0.0 0.00 0.00 0.00 33 1015.4
20171216015017 54 0.0 0.0 0.00 0.00 0.00 33 1015.4
20171216014515 54 0.0 0.0 0.00 0.00 0.00 32 1015.5
20171216014015 54 0.0 0.0 0.00 0.00 0.00 32 1015.6
20171216013515 55 0.0 0.0 0.00 0.00 0.00 32 1015.6
20171216013016 55 0.0 0.0 0.00 0.00 0.00 31 1015.6
20171216012515 55 0.0 0.0 0.00 0.00 0.00 31 1015.5
20171216012015 55 0.0 0.0 0.00 0.00 0.00 31 1015.6
20171216011515 56 0.0 0.0 0.00 0.00 0.00 31 1015.6
20171216011017 56 0.0 0.0 0.00 0.00 0.00 30 1015.7
20171216010519 57 0.0 0.0 0.00 0.00 0.00 29 1015.6
20171216010018 57 0.0 0.0 0.00 0.00 0.00 29 1015.7
20171216005517 57 0.0 0.0 0.00 0.00 0.00 28 1015.6
20171216005017 58 0.0 0.0 0.00 0.00 0.00 27 1015.7
20171216004517 59 0.0 0.0 0.00 0.00 0.00 26 1015.8
20171216004017 59 0.0 0.0 0.00 0.00 0.00 25 1015.8
20171216003517 60 0.0 0.0 0.00 0.00 0.00 24 1015.9
20171216003017 61 0.0 0.0 0.00 0.00 0.00 23 1015.9
20171216002515 62 0.0 0.0 0.00 0.00 0.00 23 1016.0
20171216002017 62 0.0 0.0 0.00 0.00 0.00 22 1016.0
20171216001517 63 0.0 0.0 0.00 0.00 0.00 21 1016.2
20171216001017 64 0.0 0.0 0.00 0.00 0.00 20 1016.2
20171216000516 64 0.0 0.0 0.00 0.00 0.00 19 1016.3
20171216000018 65 0.0 0.0 0.00 0.00 0.00 19 1016.2
20171215235521 66 0.0 0.0 0.00 0.00 0.00 18 1016.4
20171215235017 66 0.0 0.0 0.00 0.00 0.00 17 1016.5
20171215234516 67 0.0 0.0 0.00 0.00 0.00 17 1016.7
20171215234017 67 0.0 0.0 0.00 0.00 0.00 16 1016.7
20171215233817 67 0.0 1.0 0.00 0.00 0.00 16 1016.6
20171215233017 67 221 0.0 2.0 0.00 0.00 0.00 16 1016.7
20171215232517 67 220 0.0 2.0 0.00 0.00 0.00 16 1016.7
20171215232015 67 194 0.0 1.0 0.00 0.00 0.00 17 1016.9
20171215231517 68 194 0.0 1.0 0.00 0.00 0.00 17 1017.0
20171215231017 68 194 0.0 1.0 0.00 0.00 0.00 17 1017.1
20171215230517 68 194 0.0 1.0 0.00 0.00 0.00 16 1017.3
20171215230015 68 192 0.0 1.0 0.00 0.00 0.00 16 1017.3
20171215225517 68 188 0.0 2.0 0.00 0.00 0.00 16 1017.4
20171215225017 68 186 0.0 2.0 0.00 0.00 0.00 17 1017.5
20171215224520 68 206 0.0 2.0 0.00 0.00 0.00 16 1017.6
20171215224015 68 200 0.0 2.0 0.00 0.00 0.00 17 1017.6
20171215223517 68 192 0.0 1.0 0.00 0.00 0.00 17 1017.6
20171215223017 68 266 0.0 4.0 0.00 0.00 0.00 17 1017.7
20171215222517 68 265 0.0 4.0 0.00 0.00 0.00 16 1017.8
20171215222017 68 262 0.0 3.0 0.00 0.00 0.00 16 1017.9